Milk River, Alberta

7:41 PM MST on February 25, 2017 (GMT -0700)
Milk River

Weather History for 71244 - December, 2013

Change the Weather History Date:

Monday, December 23, 2013

  Actual Average Record
Temperature  
Mean Temperature 18 °F -  
Max Temperature 44 °F - - ()
Min Temperature -8 °F - - ()
Degree Days  
Heating Degree Days 47    
Moisture  
Dew Point 19 °F    
Average Humidity 76    
Maximum Humidity 91    
Minimum Humidity 54    
Precipitation  
Precipitation 0.49 in - - ()
Sea Level Pressure  
Sea Level Pressure 30.00 in    
Wind  
Wind Speed 15 mph ()    
Max Wind Speed 24 mph    
Max Gust Speed 32 mph    
T = Trace of Precipitation, MM = Missing Value Source: Averaged Metar Reports

Daily Weather History Graph

Daily Weather History Graph

Search for Another Location

Airport or City:

Trip Planner

Search our weather history database for the weather conditions in past years. The results will help you decide how hot, cold, wet, or windy it might be!

Date:

Astronomy

Dec. 23, 2013 Rise Set
Actual Time 8:21 AM MST 4:33 PM MST
Civil Twilight 7:43 AM MST 5:11 PM MST
Nautical Twilight 7:02 AM MST 5:52 PM MST
Astronomical Twilight 6:24 AM MST 6:30 PM MST
Moon 11:18 PM MST (12/23) 11:19 AM MST (12/23)
Length of Visible Light 9h 27m
Length of Day
8h 12m
Waning Gibbous, 67% of the Moon is Illuminated
Dec 23
Waning Gibbous
Dec 25
Last Quarter
Jan 1
New
Jan 7
First Quarter
Jan 15
Full

Hourly Weather History & Observations

Time (MST) Temp. Windchill Dew Point Humidity Pressure Visibility Wind Dir Wind Speed Gust Speed Precip Events Conditions
12:00 AM 3.0 °F -17.8 °F -0.8 °F 84% 30.30 in - South 19.6 mph - N/A   Unknown
1:00 AM 2.5 °F -18.0 °F 0.5 °F 91% 30.25 in - South 18.4 mph 25.3 mph N/A   Unknown
2:00 AM 4.1 °F -16.4 °F 0.5 °F 85% 30.23 in - SSW 19.6 mph - N/A   Unknown
3:00 AM 2.7 °F -18.3 °F -1.1 °F 84% 30.22 in - South 19.6 mph - N/A   Unknown
4:00 AM 3.4 °F -13.6 °F -0.2 °F 85% 30.20 in - South 12.7 mph - N/A   Unknown
5:00 AM 4 °F - 1 °F 80% 30.17 in - South 13.8 mph - -  
5:00 AM 4.5 °F -13.0 °F 0.9 °F 85% 30.17 in - South 13.8 mph - N/A   Unknown
6:00 AM 4.6 °F -14.6 °F 1.4 °F 86% 30.13 in - South 17.3 mph - N/A   Unknown
7:00 AM 7.0 °F -9.8 °F 4.5 °F 89% 30.06 in - SSE 13.8 mph - N/A   Unknown
8:00 AM 12.0 °F -4.0 °F 8.8 °F 87% 30.01 in - South 15.0 mph - N/A   Unknown
9:00 AM 21.2 °F 7.3 °F 17.2 °F 85% 29.97 in - South 16.1 mph - N/A   Unknown
10:00 AM 31.1 °F 20.1 °F 26.1 °F 82% 29.93 in - SSW 16.1 mph 23.0 mph N/A   Unknown
11:00 AM 40 °F - 29 °F 54% 29.87 in - West 24.2 mph - -  
11:00 AM 40.5 °F 30.2 °F 29.1 °F 64% 29.87 in - West 24.2 mph 32.2 mph N/A   Unknown
12:00 PM 39.9 °F 29.7 °F 29.5 °F 66% 29.91 in - WNW 23.0 mph 28.8 mph N/A   Unknown
1:00 PM 42.3 °F 34.1 °F 29.5 °F 61% 29.90 in - West 17.3 mph - N/A   Unknown
2:00 PM 42.6 °F 36.8 °F 29.5 °F 60% 29.92 in - WSW 10.4 mph - N/A   Unknown
3:00 PM 42.1 °F 36.1 °F 29.1 °F 60% 29.92 in - West 10.4 mph - N/A   Unknown
4:00 PM 40.6 °F 32.7 °F 29.7 °F 65% 29.92 in - West 15.0 mph - N/A   Unknown
5:00 PM 39 °F - 29 °F 58% 29.91 in - WSW 13.8 mph - -  
5:00 PM 38.8 °F 30.8 °F 29.5 °F 69% 29.91 in - WSW 13.8 mph - N/A   Unknown
6:00 PM 37.8 °F 28.3 °F 32.9 °F 83% 29.88 in - West 17.3 mph - N/A   Unknown
7:00 PM 34.9 °F 25.3 °F 29.8 °F 82% 29.87 in - WNW 15.0 mph - N/A   Unknown
8:00 PM 35.1 °F 25.2 °F 28.6 °F 77% 29.86 in - West 16.1 mph - N/A   Unknown
9:00 PM 33.4 °F 24.8 °F 28.6 °F 82% 29.87 in - WNW 11.5 mph - N/A   Unknown
10:00 PM 31.8 °F 21.8 °F 27.0 °F 82% 29.87 in - WNW 13.8 mph - N/A   Unknown
11:00 PM 31 °F - 27 °F 77% 29.91 in - NNW 9.2 mph - -  
11:00 PM 32.9 °F 25.3 °F 26.6 °F 78% 29.91 in - NNW 9.2 mph - N/A   Unknown